NINGXIA-1 3 (44781 NORAD) Tracking and Keplerian Element Data

This shows tracking and keplerian element data for the satellite.

Feedback or suggestion? Click here.




ElementValue
Catalog44781
NameNINGXIA-1 3
Epoch Orbit994
Epoch Day23.13358255
Epoch Year2020
RAAN179.1299
Inclination45.0004
Eccentricity0.0009574
Argument of Perigee245.7722
Mean Anonmoly114.2114
Mean Motion14.01674349
Decay Rate-1.3E-06
L11 44781U 19076C 20023.13358255 -.00000130 00000-0 00000+0 0 9990
L22 44781 45.0004 179.1299 0009574 245.7722 114.2114 14.01674349 9946

Live tracking and technical data element details for NINGXIA-1 3 (NORAD 44781). NINGXIA-1 3 can be tracked NOW for your location showing map with azimuth and elevation plus other details from your city location.

Track the satellite on the map from your city or location and see movement details for azimuth, elevation, latitude, longitude, range, height, and movement on the map or in text.







IsCatalogInMostPopularTable: catalog: 44781, numindb: 12
Update: records affected: 1



GetName: 44781 NINGXIA-1 3

Hit Count: updated at: Fri, 24 Jan 2020 11:06:01 GMT